Regional Weather Roundup
Issued by NWS

Home | Current Version | Previous Version | Text Only | Print | Product List | Glossary On
Versions: 1 2 3 4 5 6 7 8 9 10 11 12 13 14 15 16 17 18 19 20 21 22 23 24 25 26 27 28 29 30 31 32 33 34 35 36 37 38 39 40 41 42 43 44 45 46 47 48 49 50
000
ASUS45 KBOU 271407
RWRCO

WEATHER ROUNDUP FOR COLORADO
NATIONAL WEATHER SERVICE DENVER/BOULDER CO
800 AM MDT SUN JUL 27 2014

NOTE: "FAIR" INDICATES FEW OR NO CLOUDS BELOW 12000 FEET WITH NO
SIGNIFICANT WEATHER AND/OR OBSTRUCTIONS TO VISIBILITY.

COZ001>005-013-030-031-271500-
...NORTHWEST COLORADO...

CITY           SKY/WX    TMP DP  RH WIND       PRES   REMARKS
CRAIG          PTSUNNY   52  51  97 CALM      30.39R
HAYDEN         PTSUNNY   59  46  63 SE7       30.40R
MEEKER         CLOUDY    60  50  69 CALM      30.39R
MOUNT WERNER   NOT AVBL
STEAMBOAT SPGS PTSUNNY   55  49  80 CALM      30.42S
WALDEN         SUNNY     50  41  71 SE5       30.51R
$$

COZ006>008-011-271500-
...WEST CENTRAL VALLEYS...

CITY           SKY/WX    TMP DP  RH WIND       PRES   REMARKS
GRAND JUNCTION MOSUNNY   73  51  46 SE13      30.25R
MONTROSE       MOSUNNY   67  51  56 S5        30.34R
EAGLE          PTSUNNY   52  50  93 CALM      30.48R
RIFLE          PTSUNNY   64  54  69 CALM      30.34R
DELTA          MOSUNNY   69  50  49 CALM      30.30R
NUCLA          MOSUNNY   70  45  40 E8        30.37R
$$

COZ017>023-064>068-271500-
...SOUTHWEST COLORADO...

CITY           SKY/WX    TMP DP  RH WIND       PRES   REMARKS
DURANGO        PTSUNNY   66  48  52 N3        30.40R
CORTEZ         SUNNY     68  49  50 NE3       30.34R
PAGOSA SPRINGS PTSUNNY   66  45  46 NE6       30.49R
TELLURIDE      MOSUNNY   61  45  55 CALM      30.56R
WOLF CREEK PAS NOT AVBL
$$

COZ009-010-012-014-032>034-037-058>063-271500-
...CENTRAL COLORADO...

CITY           SKY/WX    TMP DP  RH WIND       PRES   REMARKS
ASPEN          MOSUNNY   55  41  59 S5        30.49R
BUENA VISTA    SUNNY     59  44  59 NW12      30.52R
COPPER MTN     MOSUNNY   57  32  38 W7        30.80R
BERTHOUD PASS  FAIR      46  34  61 E5        30.85R
COTTONWOOD PAS SUNNY     61  43  51 CALM      30.64R
GUNNISON       MOSUNNY   54  45  71 NW3       30.53R
KREMMLING      MOSUNNY   52  45  76 CALM      30.52R
LEADVILLE      SUNNY     51  42  71 CALM      30.63R
MONARCH PASS   MOSUNNY   50  39  66 SW10      30.88R
SALIDA         SUNNY    N/A N/A N/A CALM      30.57R
SUNLIGHT       PTSUNNY   59  37  44 CALM      30.71R
WILKERSON PASS NOT AVBL
$$

COZ069>075-271500-
...SAN LUIS VALLEY/SANGRE DE CRISTO MOUNTAINS...

CITY           SKY/WX    TMP DP  RH WIND       PRES   REMARKS
ALAMOSA        MOSUNNY   58  51  78 N5        30.46R
LA VETA PASS   NOT AVBL
SAGUACHE       MOSUNNY   59  46  63 NW15      30.50R
$$

COZ035-036-038>040-271500-
...NORTHERN COLORADO FRONT RANGE...

CITY           SKY/WX    TMP DP  RH WIND       PRES   REMARKS
DENVER INTL AP MOSUNNY   61  56  83 W12       30.35R FOG
DMNS CITY PARK   N/A     65  60  83 N9        30.35R
AURORA         PTSUNNY   62  59  88 W10       30.37R
FRONT RANGE AP MOSUNNY   64  59  82 SW10      30.35
ERIE MUNI ARPT MOSUNNY   66  62  85 N10       30.34R
BOULDER MUN AP SUNNY     64  55  72 CALM      30.35R
CENTENNIAL     PTSUNNY   62  56  80 NW10      30.38R
BROOMFIELD     PTSUNNY   64  59  82 NW12      30.37R
FORT COLLINS   PTSUNNY   66  61  82 N10       30.37R
LONGMONT       SUNNY     71  62  73 N8        30.36R
$$

COZ041-046-047-076>085-087-088-271500-
...PIKES PEAK/PALMER DIVIDE AND SOUTHERN FOOTHILLS...

CITY           SKY/WX    TMP DP  RH WIND       PRES   REMARKS
COLO. SPRINGS  MOSUNNY   70  53  54 N7        30.39R
A. F. ACADEMY  SUNNY     63  55  75 N7        30.42R
ELLICOTT       SUNNY     70  54  56 E12       30.38R
FALCON         SUNNY     66  53  62 N12       30.44R
FORT CARSON    SUNNY     68  53  58 N14       30.36R
LIMON          SUNNY     70  61  73 VRB5      30.35R
MONUMENT HILL  SUNNY     61  50  67 NW8       30.45R
TRINIDAD       PTSUNNY   71  56  58 W6        30.34R
$$

COZ042>045-048>051-090-091-271500-
...NORTHEAST COLORADO...

CITY           SKY/WX    TMP DP  RH WIND       PRES   REMARKS
GREELEY ARPT   CLOUDY    64  59  82 NE9       30.34R
AKRON          SUNNY     69  59  70 E15       30.33R
BURLINGTON     PTSUNNY   68  60  75 NE9       30.29R
WRAY             N/A     70  56  60 E7        30.30R
STERLING       SUNNY     70  64  83 NE6       30.32R
HOLYOKE        SUNNY     72  54  53 E10       30.31R
FORT MORGAN    SUNNY     68  61  77 E12       30.33R
$$

COZ086-089-092>099-271500-
...SOUTHEAST COLORADO...

CITY           SKY/WX    TMP DP  RH WIND       PRES   REMARKS
PUEBLO         SUNNY     67  60  78 E7        30.30R
LA JUNTA       SUNNY     72  62  71 E9        30.27R
LAMAR          MOSUNNY   71  63  75 CALM      30.23R
SPRINGFIELD      N/A     71  63  75 NE9       30.27R
$$



USA.gov is the U.S. government's official web portal to all federal, state and local government web resources and services.